Theta_e
346 346 349 352 350 351 356 352 354 355 354 354 353 354 354 356 354 353 351 351 351 350 351 352 350 351 351 350 348 346 345 346 348 342 346 348 350 348 349 351 350 346 345
345 346 346 348 348 350 350 353 356 356 355 354 353 353 353 354 355 355 353 353 353 352 352 350 350 350 350 350 348 346 350 348 348 344 346 346 348 348 347 347 347 344 345
343 344 345 345 346 346 347 349 351 351 355 355 354 352 352 353 353 356 357 355 354 353 354 354 351 351 350 350 347 352 351 348 348 348 347 347 347 348 347 347 343 344 344
342 344 344 344 343 344 343 345 346 349 349 352 354 354 352 352 348 346 356 355 356 356 355 354 351 349 350 350 351 353 350 350 352 349 347 347 347 347 347 347 345 346 346
340 340 339 340 340 343 345 344 341 345 349 350 351 354 352 352 345 333 350 354 354 356 356 354 353 349 348 350 352 354 349 349 348 350 348 348 345 347 346 347 345 345 345
339 339 340 338 339 341 343 342 340 342 346 348 350 352 352 350 351 350 354 355 355 355 355 355 354 351 349 350 352 351 348 349 348 347 346 350 346 347 348 347 346 346 345
337 338 338 339 340 340 341 341 339 342 344 347 350 353 352 352 352 352 353 355 355 353 354 355 354 352 349 351 352 349 346 349 347 344 344 346 347 347 347 345 347 345 346
335 336 338 337 338 338 340 340 340 338 342 345 348 350 349 349 349 352 353 354 354 355 353 354 355 354 354 353 353 350 349 345 346 342 342 342 346 347 348 347 345 346 344
336 335 335 337 336 337 338 338 339 340 337 342 344 345 346 347 346 351 354 354 354 352 353 353 353 352 352 352 349 350 350 344 338 342 344 343 342 345 346 345 346 344 342
332 328 330 334 334 335 335 334 333 336 340 340 342 344 345 345 346 349 350 351 353 354 354 353 352 352 352 349 347 347 350 348 344 344 343 345 344 339 338 341 342 344 343
328 327 326 327 331 335 333 334 337 335 338 340 341 342 345 344 343 343 341 343 345 341 344 347 351 353 352 349 346 348 347 348 345 344 344 343 337 333 335 335 338 340 339
323 324 326 328 330 330 333 334 335 336 336 339 339 341 342 343 342 343 342 339 338 341 344 345 345 347 349 351 348 346 348 346 343 344 339 333 338 336 338 331 336 335 335
325 324 325 327 328 327 331 332 335 336 336 337 336 337 339 339 339 339 338 339 339 340 340 343 345 343 347 346 348 347 346 345 341 341 340 339 340 341 338 339 337 338 340
327 327 326 327 328 329 331 331 331 334 335 334 332 335 335 336 336 337 338 339 339 339 342 342 342 342 344 344 343 345 345 344 340 339 339 340 338 338 338 338 338 340 339
325 324 327 329 331 328 329 324 326 328 333 334 334 333 328 325 326 334 337 338 339 340 340 339 340 339 339 339 339 339 340 340 340 339 338 338 336 335 336 337 337 337 336
323 323 325 327 328 329 330 330 325 326 324 326 327 326 322 321 321 322 325 335 337 337 337 338 337 337 337 336 336 336 336 336 336 336 337 336 336 336 335 334 334 334 334
324 324 325 327 326 327 329 327 329 326 326 326 326 325 323 321 320 321 321 326 331 333 336 336 334 332 333 332 333 334 333 334 334 333 332 332 332 334 334 334 334 335 336
323 326 327 320 327 326 327 327 326 326 326 324 324 323 325 323 320 324 325 325 327 329 332 332 331 329 330 331 331 332 332 332 331 331 331 333 331 332 334 334 335 334 334
325 327 327 326 327 327 327 325 325 325 329 329 324 322 323 324 323 323 327 328 329 329 329 329 328 325 326 326 325 326 327 328 328 329 330 330 331 332 332 332 331 330 329
326 326 322 322 327 327 326 327 326 327 325 328 329 326 323 325 326 328 327 327 328 328 329 329 328 327 326 324 325 323 323 324 326 326 327 326 326 327 328 327 326 327 327
328 326 325 323 324 326 325 325 326 326 329 329 329 330 326 325 329 328 328 326 327 327 327 326 325 321 321 326 328 328 328 327 328 327 327 324 325 325 321 326 326 326 325
327 325 325 325 324 325 324 324 325 326 328 328 329 328 324 324 327 327 326 327 327 325 327 327 326 326 327 326 326 326 326 326 325 325 325 325 324 326 325 324 323 322 324
326 325 322 323 325 324 323 321 323 324 324 325 328 329 325 326 324 326 328 327 326 325 325 325 326 326 325 325 322 325 325 324 324 324 324 324 324 323 322 322 321 323 323
323 323 323 323 324 323 323 323 322 321 321 322 322 323 323 324 325 326 327 326 324 323 325 325 322 325 325 325 324 324 324 324 324 323 322 323 323 322 321 321 320 321 321
322 323 323 323 323 324 322 322 323 323 323 322 321 321 322 322 323 324 327 327 326 325 324 325 325 324 324 324 325 324 324 323 322 322 319 318 315 319 321 320 319 319 320
323 322 321 320 321 322 322 322 322 322 322 322 322 323 322 321 321 321 320 325 326 325 325 325 324 323 322 321 321 323 322 322 322 320 319 317 310 316 318 319 320 318 318
Wind_Speed
19 19 21 22 23 24 25 30 36 42 43 46 52 44 44 48 42 40 39 39 38 37 35 34 31 30 31 29 29 26 26 29 29 27 25 21 20 17 17 19 24 23 19
20 23 23 20 20 21 23 27 30 33 41 46 47 52 43 38 41 43 37 41 43 36 34 33 31 34 35 31 30 27 23 21 21 26 23 21 18 21 21 23 23 20 17
22 25 25 26 23 24 25 23 26 33 36 39 44 48 54 48 44 37 40 38 40 38 37 34 31 32 29 30 26 22 23 19 19 23 25 19 17 21 21 22 19 16 13
29 25 23 25 27 27 27 26 28 29 33 36 38 42 47 48 41 48 42 38 37 36 35 36 35 32 31 28 25 26 23 22 22 20 21 21 19 18 24 24 19 14 13
30 31 32 32 29 25 25 28 28 32 31 33 34 38 40 43 45 72 59 44 39 37 34 34 34 33 32 29 28 28 26 27 26 23 23 18 16 20 25 21 19 14 13
25 25 25 28 27 26 24 25 23 27 31 33 33 37 37 38 44 51 46 35 38 37 36 34 35 35 35 30 28 26 25 26 29 24 23 21 18 19 19 19 15 15 18
20 23 26 23 24 23 22 24 22 22 25 26 31 30 32 31 32 31 28 29 33 35 36 36 36 38 36 33 30 29 29 30 29 25 28 27 22 21 20 20 20 19 18
20 20 17 17 17 18 19 19 19 19 20 21 25 27 27 30 28 27 31 32 32 34 36 37 37 34 33 32 31 31 35 35 37 32 28 23 26 23 17 17 20 20 21
15 17 17 12 14 12 13 13 17 16 18 18 19 21 27 26 30 27 26 29 30 33 35 36 35 37 37 37 30 32 33 33 35 34 30 28 25 21 20 19 19 19 21
14 13 13 14 10 8 13 13 15 16 16 16 16 15 15 20 26 20 26 22 30 34 35 32 34 38 37 32 34 36 35 33 28 30 28 22 19 19 18 23 21 22 22
12 10 10 14 9 11 10 12 12 11 12 12 13 14 14 12 15 15 15 20 22 21 25 26 29 35 36 33 30 33 35 32 28 24 23 20 23 25 30 27 27 31 26
13 12 8 15 12 11 10 13 11 10 8 8 8 9 13 13 12 12 14 14 19 22 23 20 24 20 22 30 31 31 33 32 29 28 26 26 26 31 35 32 29 27 31
11 10 10 15 12 10 9 11 10 6 9 5 8 4 1 6 9 10 11 11 14 17 17 20 16 16 18 22 24 27 28 29 30 30 28 29 29 30 24 22 24 29 28
9 9 12 15 9 8 6 5 8 6 5 8 9 5 5 1 4 2 6 7 8 14 16 16 12 13 15 15 15 19 26 29 28 29 29 25 21 21 21 23 23 22 17
12 5 12 14 14 8 3 6 7 5 4 5 3 3 3 3 3 2 3 4 9 11 11 10 9 9 9 11 14 16 18 19 20 18 17 18 19 16 14 17 20 18 15
7 10 14 14 8 11 5 6 4 3 3 2 3 5 5 5 4 4 5 6 8 10 8 7 7 7 7 6 7 8 9 10 11 13 15 17 16 16 18 21 22 24 26
9 13 12 13 7 9 11 8 7 5 3 2 2 4 7 8 7 7 6 9 10 9 6 6 6 6 4 5 4 3 2 3 3 3 4 4 6 6 9 11 11 12 10
7 11 14 10 7 12 11 11 8 12 8 6 3 1 2 5 6 7 9 10 7 7 9 5 1 5 7 8 11 10 10 8 8 7 7 5 6 7 5 3 3 6 7
10 13 10 11 10 11 7 3 8 13 15 7 7 5 4 2 4 5 6 6 6 5 0 3 1 3 4 6 6 8 8 4 7 4 6 7 6 4 6 7 8 8 10
10 11 9 8 6 8 8 12 10 4 8 12 8 4 6 6 2 6 6 5 3 5 7 4 4 4 7 10 11 9 7 8 8 7 7 5 3 2 3 4 2 1 3
15 16 9 8 11 10 15 6 2 8 4 8 5 10 2 2 2 2 3 4 3 2 2 2 6 6 6 10 7 5 3 6 4 3 4 5 4 5 4 6 6 4 4
9 9 10 8 6 2 6 3 3 5 7 5 7 5 1 7 6 7 9 9 7 5 3 3 6 2 3 6 4 4 5 4 4 3 2 4 4 3 5 4 4 7 6
10 8 9 9 8 6 6 6 4 2 2 1 8 6 3 3 9 13 8 9 9 7 6 5 5 6 9 10 7 5 4 9 7 7 7 3 1 6 9 7 8 7 3
10 11 9 10 11 8 3 6 4 5 5 2 4 6 6 7 8 8 15 10 6 8 8 8 9 5 5 8 8 8 8 10 10 7 6 6 7 11 8 9 8 9 10
13 13 5 8 4 6 7 5 4 6 8 6 6 5 4 2 5 5 8 7 5 8 11 14 14 12 8 5 8 9 14 12 15 13 12 11 12 11 10 11 11 11 11
13 10 3 3 8 10 8 8 9 6 6 6 5 6 7 7 5 5 5 5 8 9 10 11 11 12 13 13 16 15 14 14 15 16 16 13 10 10 10 9 13 10 13
Wind_Direction
274 269 259 261 267 257 256 254 250 246 242 241 237 232 242 245 242 244 239 237 236 236 241 245 249 253 257 260 267 270 263 267 268 266 245 251 267 248 236 241 253 273 276
276 275 278 278 273 272 267 261 251 248 245 243 244 236 237 237 235 235 238 234 232 233 237 243 247 249 255 264 272 264 267 268 262 260 259 252 262 257 259 255 267 275 271
278 270 270 267 267 269 260 257 270 259 250 248 245 243 238 238 244 228 233 235 235 232 232 238 242 247 256 260 256 251 256 263 260 259 260 262 260 263 270 271 279 265 270
273 270 269 268 271 273 268 259 253 264 261 251 248 243 238 238 234 254 239 233 233 233 235 236 241 244 252 249 246 246 245 245 251 250 263 259 251 258 264 273 274 275 275
282 277 272 274 276 268 268 272 266 252 257 259 251 247 240 238 234 257 236 229 232 232 232 234 238 242 244 245 243 246 246 240 240 243 256 267 243 253 262 278 257 261 274
293 293 289 275 276 274 276 284 283 265 254 256 251 248 246 242 240 238 213 223 229 231 232 232 231 241 241 241 240 243 243 238 241 240 248 252 255 259 254 258 257 247 251
300 300 294 284 277 276 274 282 283 282 260 259 247 243 241 246 249 245 235 231 232 233 235 233 230 237 241 237 233 237 239 239 244 248 236 233 238 245 255 254 246 245 250
298 302 310 302 287 285 281 280 288 277 275 263 251 244 243 244 250 246 233 232 234 235 236 236 231 230 234 236 233 232 239 240 242 245 243 244 241 241 247 243 256 250 242
292 291 282 298 305 307 298 293 282 283 270 269 263 262 248 247 248 245 234 234 230 236 237 239 238 236 236 235 233 237 241 241 241 240 244 254 252 251 248 249 242 245 253
279 292 303 298 293 316 317 314 289 283 277 265 256 254 257 247 245 245 238 241 236 234 236 241 242 241 242 241 236 235 237 243 235 239 232 229 228 231 251 256 254 253 249
277 289 309 304 315 326 322 337 313 295 274 266 261 243 218 211 226 230 232 232 239 243 242 240 246 241 238 236 235 240 238 242 239 234 232 230 237 242 253 247 246 244 249
270 265 305 306 321 328 350 350 339 329 316 273 236 233 220 223 223 234 241 231 224 221 228 235 239 239 241 236 233 234 234 239 237 235 233 242 238 266 245 238 249 247 254
274 286 306 308 314 331 342 351 356 355 13 352 312 322 244 254 250 245 234 228 227 232 226 235 238 238 237 233 235 233 231 233 232 233 241 258 241 233 246 253 255 254 255
282 293 288 299 309 314 0 12 346 8 37 39 40 42 40 187 160 188 238 234 220 213 222 230 233 231 231 232 231 232 231 232 236 248 254 241 244 246 250 253 262 265 260
279 288 296 296 292 292 320 334 355 17 51 63 71 28 68 14 51 160 183 181 188 194 199 200 188 192 200 214 228 230 230 232 238 245 250 245 246 248 253 255 259 263 267
239 275 299 302 287 288 271 311 318 357 29 53 53 31 51 57 79 93 114 129 132 140 148 171 185 198 206 212 221 227 224 222 232 244 248 249 257 262 258 260 264 268 275
260 265 295 295 284 302 252 265 269 269 215 154 87 65 56 53 56 70 98 120 119 122 139 140 117 118 124 126 121 145 127 181 206 236 265 272 268 262 269 270 267 271 272
275 275 275 280 274 293 308 255 237 262 249 213 188 154 53 67 73 96 105 118 93 63 97 133 156 156 159 176 182 192 193 195 193 203 213 217 239 244 245 224 228 252 260
277 279 254 259 272 271 276 263 255 259 232 229 207 189 174 128 84 101 93 69 98 110 56 173 355 152 164 187 195 202 206 217 193 226 229 216 237 232 262 269 273 282 285
302 268 280 244 251 283 261 279 263 22 231 225 212 187 186 182 151 135 97 38 153 145 123 121 136 116 85 91 82 77 87 102 101 107 110 96 82 158 219 236 274 322 313
286 280 250 246 260 287 277 274 263 213 74 101 139 193 330 178 285 248 215 161 130 132 110 86 100 86 108 118 117 117 104 85 114 99 94 62 99 346 40 29 38 34 324
306 311 249 265 267 286 284 288 270 288 199 246 182 191 193 209 256 230 198 180 199 191 167 186 192 99 112 134 131 159 191 186 104 79 185 320 324 16 360 329 273 318 324
269 282 281 257 224 262 289 220 275 321 358 213 217 222 286 255 226 242 214 198 180 171 203 213 213 188 209 223 225 211 237 209 231 222 222 235 282 263 261 257 282 297 292
291 288 267 270 283 243 122 257 207 253 245 284 249 223 266 278 259 253 183 205 242 248 223 215 201 224 191 171 209 198 228 215 199 204 223 223 255 286 277 253 257 254 274
321 293 248 283 267 263 277 245 251 281 217 209 234 228 247 256 271 296 222 204 220 208 221 213 211 232 241 234 250 254 245 243 250 260 282 279 258 244 263 265 258 265 259
1 20 42 302 323 318 319 300 266 252 264 284 281 267 220 223 225 240 259 238 227 240 230 209 220 230 247 253 247 243 244 253 263 271 282 288 256 232 247 280 240 262 270